CES258 ZSJN-ZYTL

Flight info

Callsign CES258
Flight time N/A
Altitude 41100
Route BASOV7Y BASOV W4 HCH W173 NIXEP NIX06A
Aircraft A359/H-SDE2E3GHIJ3J4J5LM1ORWXY/LB1D1

Departure

Time 2026-04-16 14:38
Airport Jinan Yaoqiang International Airport (ZSJN)

Arrival

Time N/A
Airport Dalian Zhoushuizi International Airport (ZYTL)
Time Latitude Longitude Altitude Speed Heading
2026-04-16 14:08 36.85337 117.21120 86 ft 0 kts 262°
2026-04-16 14:18 36.85338 117.21122 86 ft 2 kts 262°
2026-04-16 14:18 36.85341 117.21153 87 ft 4 kts 262°
2026-04-16 14:18 36.85345 117.21187 87 ft 4 kts 262°
2026-04-16 14:18 36.85346 117.21198 89 ft 0 kts 262°
2026-04-16 14:21 36.85349 117.21189 90 ft 6 kts 291°
2026-04-16 14:21 36.85379 117.21174 89 ft 2 kts 27°
2026-04-16 14:21 36.85383 117.21200 91 ft 7 kts 85°
2026-04-16 14:21 36.85380 117.21261 90 ft 8 kts 97°
2026-04-16 14:22 36.85380 117.21341 88 ft 8 kts 71°
2026-04-16 14:22 36.85425 117.21372 88 ft 8 kts
2026-04-16 14:22 36.85494 117.21371 89 ft 12 kts
2026-04-16 14:22 36.85589 117.21370 89 ft 15 kts 358°
2026-04-16 14:23 36.85709 117.21369 89 ft 18 kts
2026-04-16 14:23 36.85849 117.21373 89 ft 22 kts 356°
2026-04-16 14:23 36.86003 117.21368 90 ft 23 kts
2026-04-16 14:23 36.86170 117.21375 88 ft 25 kts 360°
2026-04-16 14:24 36.86349 117.21377 90 ft 27 kts
2026-04-16 14:24 36.86548 117.21378 90 ft 30 kts
2026-04-16 14:24 36.86765 117.21372 88 ft 32 kts 355°
2026-04-16 14:24 36.86992 117.21372 88 ft 34 kts
2026-04-16 14:25 36.87231 117.21369 88 ft 34 kts 353°
2026-04-16 14:25 36.87324 117.21394 91 ft 4 kts 72°
2026-04-16 14:25 36.87327 117.21419 90 ft 0 kts 84°
2026-04-16 14:37 36.87332 117.21483 88 ft 16 kts 84°
2026-04-16 14:37 36.87277 117.21592 91 ft 17 kts 170°
2026-04-16 14:38 36.87147 117.21597 89 ft 22 kts 179°
2026-04-16 14:38 36.86725 117.21595 88 ft 103 kts 179°
2026-04-16 14:38 36.85769 117.21596 117 ft 170 kts 176°
2026-04-16 14:38 36.84610 117.21813 1060 ft 161 kts 159°
2026-04-16 14:39 36.83802 117.22811 1698 ft 185 kts 114°
2026-04-16 14:39 36.83505 117.24512 1900 ft 217 kts 102°
2026-04-16 14:39 36.83224 117.26477 2340 ft 242 kts 102°
2026-04-16 14:39 36.82923 117.28584 3305 ft 249 kts 103°
2026-04-16 14:40 36.82627 117.30733 4315 ft 254 kts 101°
2026-04-16 14:40 36.82337 117.32934 5296 ft 259 kts 99°
2026-04-16 14:40 36.82382 117.35153 6379 ft 255 kts 70°
2026-04-16 14:40 36.83361 117.36927 7406 ft 253 kts 36°
2026-04-16 14:41 36.85008 117.37732 8174 ft 262 kts
2026-04-16 14:41 36.86837 117.37544 9190 ft 267 kts 351°
2026-04-16 14:41 36.88699 117.37271 10277 ft 273 kts 353°
2026-04-16 14:41 36.90669 117.37083 10887 ft 297 kts 355°
2026-04-16 14:42 36.92835 117.36977 11292 ft 325 kts 356°
2026-04-16 14:42 36.95155 117.36930 12003 ft 339 kts 357°
2026-04-16 14:42 36.97539 117.36912 12967 ft 345 kts 357°
2026-04-16 14:42 36.99961 117.36905 13947 ft 351 kts 357°
2026-04-16 14:43 37.02428 117.36904 14804 ft 357 kts 357°
2026-04-16 14:43 37.04936 117.36906 15635 ft 364 kts 356°
2026-04-16 14:43 37.07485 117.36909 16485 ft 369 kts 356°
2026-04-16 14:43 37.10077 117.36915 17333 ft 375 kts 356°
2026-04-16 14:44 37.12713 117.37113 18173 ft 384 kts
2026-04-16 14:44 37.15385 117.37592 18935 ft 391 kts
2026-04-16 14:44 37.18056 117.38131 19687 ft 397 kts
2026-04-16 14:44 37.20809 117.38693 20476 ft 403 kts
2026-04-16 14:45 37.23600 117.39260 21260 ft 409 kts
2026-04-16 14:45 37.26432 117.39834 22030 ft 415 kts
2026-04-16 14:45 37.29304 117.40418 22788 ft 422 kts
2026-04-16 14:45 37.32176 117.41412 23521 ft 437 kts 19°
2026-04-16 14:46 37.34789 117.43484 24170 ft 454 kts 37°
2026-04-16 14:46 37.36869 117.46524 24838 ft 466 kts 55°
2026-04-16 14:46 37.38214 117.50268 25474 ft 475 kts 72°
2026-04-16 14:46 37.39054 117.54312 26079 ft 482 kts 78°
2026-04-16 14:47 37.39691 117.58471 26695 ft 487 kts 79°
2026-04-16 14:47 37.40243 117.62702 27309 ft 493 kts 81°
2026-04-16 14:47 37.40726 117.66997 27919 ft 498 kts 82°
2026-04-16 14:47 37.41168 117.71338 28520 ft 504 kts 83°
2026-04-16 14:48 37.41592 117.75735 29101 ft 509 kts 83°
2026-04-16 14:48 37.42012 117.80177 29669 ft 514 kts 83°
2026-04-16 14:48 37.42436 117.84663 30201 ft 519 kts 83°
2026-04-16 14:48 37.42866 117.89188 30668 ft 524 kts 83°
2026-04-16 14:49 37.43303 117.93754 31108 ft 528 kts 83°
2026-04-16 14:49 37.43744 117.98361 31631 ft 531 kts 83°
2026-04-16 14:49 37.44184 118.02957 32284 ft 530 kts 83°
2026-04-16 14:49 37.44626 118.07583 32617 ft 535 kts 84°
2026-04-16 14:50 37.45071 118.12259 32919 ft 541 kts 84°
2026-04-16 14:50 37.45518 118.16981 33270 ft 546 kts 84°
2026-04-16 14:50 37.45967 118.21747 33614 ft 550 kts 84°
2026-04-16 14:50 37.46417 118.26546 33961 ft 554 kts 84°
2026-04-16 14:51 37.46868 118.31375 34331 ft 556 kts 84°
2026-04-16 14:51 37.47311 118.36136 34807 ft 554 kts 85°
2026-04-16 14:51 37.47758 118.40955 35180 ft 555 kts 85°
2026-04-16 14:51 37.48203 118.45787 35540 ft 556 kts 85°
2026-04-16 14:53 37.51260 118.79592 38282 ft 555 kts 87°
2026-04-16 14:53 37.51689 118.84421 38671 ft 554 kts 87°
2026-04-16 14:54 37.52116 118.89245 38961 ft 554 kts 87°
2026-04-16 14:54 37.52540 118.94069 39212 ft 555 kts 87°
2026-04-16 14:54 37.52964 118.98913 39411 ft 557 kts 88°
2026-04-16 14:54 37.53380 119.03696 39623 ft 558 kts 88°
2026-04-16 14:55 37.53801 119.08554 39871 ft 558 kts 88°
2026-04-16 14:55 37.54221 119.13419 40114 ft 559 kts 88°
2026-04-16 14:55 37.54639 119.18289 40385 ft 559 kts 88°
2026-04-16 14:55 37.55056 119.23162 40632 ft 559 kts 88°
2026-04-16 14:56 37.55471 119.28040 40781 ft 561 kts 88°
2026-04-16 14:56 37.55885 119.32944 40926 ft 564 kts 88°
2026-04-16 14:56 37.56711 119.42782 41036 ft 564 kts 88°
2026-04-16 14:57 37.57529 119.52605 41040 ft 563 kts 88°
2026-04-16 14:57 37.58337 119.62431 41042 ft 564 kts 88°
2026-04-16 14:58 37.59536 119.77196 41055 ft 564 kts 88°
2026-04-16 14:59 37.60326 119.87043 41038 ft 564 kts 88°
2026-04-16 14:59 37.61107 119.96893 41045 ft 565 kts 88°
2026-04-16 15:00 37.61880 120.06752 41049 ft 565 kts 88°
2026-04-16 15:00 37.62720 120.16602 41053 ft 567 kts 83°
2026-04-16 15:01 37.65246 120.25974 41053 ft 572 kts 60°
2026-04-16 15:01 37.67492 120.30091 41049 ft 569 kts 47°
2026-04-16 15:01 37.70320 120.33543 41047 ft 563 kts 34°
2026-04-16 15:02 37.76947 120.38644 41046 ft 557 kts 24°
2026-04-16 15:02 37.83736 120.43409 41058 ft 558 kts 24°
2026-04-16 15:03 37.90509 120.48210 41050 ft 558 kts 24°
2026-04-16 15:03 37.97269 120.53027 41048 ft 558 kts 24°
2026-04-16 15:04 38.04031 120.57860 41053 ft 558 kts 24°
2026-04-16 15:04 38.10791 120.62703 41053 ft 558 kts 24°
2026-04-16 15:05 38.17544 120.67552 41069 ft 558 kts 24°
2026-04-16 15:05 38.24297 120.72412 41053 ft 557 kts 24°
2026-04-16 15:06 38.31048 120.77281 41056 ft 557 kts 24°
2026-04-16 15:06 38.37761 120.82134 40362 ft 553 kts 25°
2026-04-16 15:06 38.41125 120.84567 39481 ft 558 kts 25°
2026-04-16 15:07 38.44517 120.87021 38691 ft 561 kts 26°
2026-04-16 15:07 38.47906 120.89480 37954 ft 560 kts 26°
2026-04-16 15:07 38.51276 120.91930 37442 ft 554 kts 26°
2026-04-16 15:07 38.54564 120.94323 36954 ft 548 kts 26°
2026-04-16 15:08 38.57854 120.96720 36426 ft 542 kts 26°
2026-04-16 15:08 38.61123 120.99101 35833 ft 539 kts 26°
2026-04-16 15:08 38.64362 121.01464 35364 ft 534 kts 27°
2026-04-16 15:08 38.67575 121.03809 34938 ft 528 kts 27°
2026-04-16 15:09 38.70748 121.06128 34522 ft 522 kts 27°
2026-04-16 15:09 38.73883 121.08422 34072 ft 517 kts 27°
2026-04-16 15:09 38.76995 121.10701 33543 ft 512 kts 28°
2026-04-16 15:09 38.80074 121.12958 33021 ft 508 kts 28°
2026-04-16 15:10 38.83127 121.15198 32515 ft 503 kts 28°
2026-04-16 15:10 38.86151 121.17419 32026 ft 499 kts 28°
2026-04-16 15:10 38.89148 121.19623 31548 ft 494 kts 28°
2026-04-16 15:10 38.92112 121.21804 31203 ft 486 kts 29°
2026-04-16 15:11 38.95016 121.23929 31012 ft 475 kts 27°
2026-04-16 15:11 38.97779 121.26151 30749 ft 465 kts 41°
2026-04-16 15:11 38.99868 121.29209 30573 ft 448 kts 62°
2026-04-16 15:11 39.01061 121.32775 30408 ft 424 kts 83°
2026-04-16 15:12 39.01263 121.36409 30237 ft 394 kts 105°
2026-04-16 15:12 39.00516 121.39619 30066 ft 360 kts 128°
2026-04-16 15:12 38.99290 121.42338 29890 ft 348 kts 129°
2026-04-16 15:12 38.98281 121.45159 29729 ft 347 kts 120°
2026-04-16 15:13 38.97596 121.48125 29570 ft 345 kts 112°
2026-04-16 15:13 38.97164 121.51135 29429 ft 339 kts 106°
2026-04-16 15:13 38.96841 121.54201 27387 ft 373 kts 105°